Regional Weather Roundup
Issued by NWS Midland/Odessa, TX

Skip options and go directly to product.
Home | Oldest Version | Next Version | Current Version | All | Text Only | Save Text | Print | Product List | Glossary On

Skip product version selection by date and time.   
398
ASUS44 KMAF 170801
RWRMAF
MIDLAND AREA WEATHER ROUNDUP
NATIONAL WEATHER SERVICE MIDLAND TX
300 AM CDT FRI APR 17 2015

...IN SOUTHWEST TEXAS AND SOUTHEAST NEW MEXICO...

CITY           SKY/WX    TMP DP  RH WIND       PRES   REMARKS
ALPINE         CLEAR     54  48  81 W6        30.06F
ANDREWS        MOCLDY    64  56  76 CALM      29.94S
ARTESIA        MOCLDY    54  18  24 N14       30.00S
BIG SPRING     CLEAR     65  61  86 SE12      29.92S
CARLSBAD       MOCLDY    61  19  19 N20G28    29.96R
DRYDEN           N/A     69  66  90 E6        29.88F
FORT STOCKTON  PTCLDY    63  50  62 SW10      29.93F
GUAD PASS      CLEAR     54  -4   9 W26       30.04F
HOBBS          MOCLDY    50  43  76 NW9       30.00S
MARFA          CLEAR     46  39  76 NW7       30.04F
MIDLAND AIRPK  MOCLDY    66  60  80 W3        29.94S
MIDLAND INTL   CLOUDY    66  60  81 CALM      29.93F
ODESSA         PTCLDY    62  58  86 S3        29.93F
PECOS          PTCLDY    58  38  47 SW8       29.93R
PRESIDIO       FAIR      67  36  32 CALM      29.93R
SEMINOLE       MOCLDY    55  51  87 W16       29.99R
SNYDER         CLEAR    N/A N/A N/A SE9       29.91S
WINK           CLEAR     56  52  86 N8        29.90R
$$
...OTHER STATIONS IN TEXAS...

CITY           SKY/WX    TMP DP  RH WIND       PRES   REMARKS
ABILENE        CLEAR     65  59  81 S15G23    29.90F
AMARILLO       PTCLDY    49  48  97 CALM      29.95S
AUSTIN         CLOUDY    66  65  96 E9        29.94F
BROWNSVILLE    PTCLDY    75  74  96 E8        29.86F FOG
CORPUS CHRISTI CLOUDY    75  73  93 E13       29.87F FOG
DALLAS FTW     MOCLDY    63  59  87 S9        29.93F
DEL RIO        CLOUDY    69  67  93 SE6       29.86F
EL PASO        CLEAR     56  -1  10 N17       30.02F
HOUSTON INT    TSTM      66  64  93 SE23      29.97F
LUBBOCK        MOCLDY    56  50  80 W7        29.91F
SAN ANGELO     MOCLDY    60  58  92 E5        29.91S
SAN ANTONIO    DRZL/FOG  69  67  93 E6        29.93S VSB 1/2
WACO           CLOUDY    65  62  90 SE13      29.95F
WICHITA FALLS  NOT AVBL
$$
...OTHER LOCATIONS IN NEW MEXICO...

CITY           SKY/WX    TMP DP  RH WIND       PRES   REMARKS
ALAMAGORDO     PTCLDY    46   9  21 N9        30.05S
ALBUQUERQUE    PTCLDY    41   9  26 CALM      30.06F
CANNON AFB     NOT AVBL
CLOVIS         MOCLDY    46  21  36 NW12      29.97F
HOLLOMAN AFB   NOT AVBL
ROSWELL        PTCLDY    47  22  37 N7        30.02S
RUIDOSO        CLEAR     36  -2  20 NW9       30.08S WCI  29
SANTA FE       PTCLDY    26   3  37 W5        30.03F WCI  20
TRUTH OR CONSE CLEAR     41  -2  16 N6        30.07S WCI  37
TUCUMCARI      PTCLDY    42  17  36 SW10      29.98R WCI  36
$$

USA.gov is the U.S. government's official web portal to all federal, state and local government web resources and services.